timestamp,wind_dir_avg,wind_spd_avg,wind_spd_max_dir,wind_spd_gust,battery_voltage,lat,long
2021-05-14 00:04:01+00:00,232.0,4.28,235.0,4.7,12.89,47.59359,-54.27349
2021-05-14 00:14:01+00:00,238.0,4.83,237.0,5.24,12.57,47.59359,-54.27349
2021-05-14 00:24:01+00:00,238.0,4.74,237.0,5.29,12.57,47.59359,-54.27349
2021-05-14 00:34:01+00:00,242.0,5.03,242.0,6.06,12.57,47.59359,-54.27349
2021-05-14 00:44:01+00:00,236.0,5.44,233.0,6.25,12.57,47.59359,-54.27349
2021-05-14 00:54:01+00:00,243.0,4.25,243.0,5.01,12.57,47.59359,-54.27349
2021-05-14 01:04:01+00:00,238.0,4.42,237.0,5.02,12.57,47.59359,-54.27349
2021-05-14 01:14:01+00:00,237.0,5.2,238.0,5.71,12.57,47.59359,-54.27349
2021-05-14 01:24:01+00:00,241.0,5.22,252.0,6.05,12.57,47.59359,-54.27349
2021-05-14 01:34:01+00:00,248.0,5.91,248.0,6.91,12.57,47.59359,-54.27349
2021-05-14 01:44:01+00:00,251.0,4.72,252.0,5.35,12.57,47.59359,-54.27349
2021-05-14 01:54:01+00:00,237.0,4.55,242.0,5.14,12.57,47.59359,-54.27349
2021-05-14 02:04:01+00:00,240.0,4.68,240.0,5.05,12.57,47.59359,-54.27349
2021-05-14 02:14:01+00:00,237.0,4.74,242.0,5.45,12.57,47.59359,-54.27349
2021-05-14 02:24:01+00:00,233.0,5.3,236.0,5.59,12.57,47.59359,-54.27349
2021-05-14 02:34:01+00:00,232.0,5.35,231.0,5.97,12.57,47.59359,-54.27349
2021-05-14 02:44:01+00:00,232.0,4.14,235.0,4.76,12.57,47.59359,-54.27349
2021-05-14 02:54:01+00:00,230.0,3.54,232.0,4.13,12.57,47.59359,-54.27349
2021-05-14 03:04:01+00:00,235.0,2.75,240.0,3.3,12.57,47.59359,-54.27349
2021-05-14 03:14:00+00:00,304.0,4.36,314.0,5.39,12.49,47.59359,-54.27349
2021-05-14 03:24:00+00:00,290.0,5.3,289.0,6.79,12.49,47.59359,-54.27349
2021-05-14 03:34:00+00:00,284.0,4.56,291.0,5.93,12.49,47.59359,-54.27349
2021-05-14 03:44:00+00:00,297.0,5.74,298.0,7.5,12.49,47.59359,-54.27349
2021-05-14 03:54:00+00:00,293.0,7.21,295.0,8.64,12.49,47.59359,-54.27349
2021-05-14 04:04:00+00:00,299.0,7.49,297.0,10.11,12.49,47.59359,-54.27349
2021-05-14 04:14:00+00:00,303.0,6.6,299.0,7.96,12.49,47.59359,-54.27349
2021-05-14 04:24:00+00:00,280.0,6.4,277.0,7.43,12.49,47.59359,-54.27349
2021-05-14 04:34:00+00:00,279.0,6.7,278.0,7.63,12.49,47.59359,-54.27349
2021-05-14 04:44:00+00:00,270.0,6.18,271.0,6.74,12.49,47.59359,-54.27349
2021-05-14 04:54:00+00:00,278.0,5.8,280.0,6.91,12.49,47.59359,-54.27349
2021-05-14 05:04:00+00:00,288.0,6.32,287.0,7.67,12.49,47.59359,-54.27349
2021-05-14 05:14:01+00:00,290.0,7.19,293.0,7.96,12.49,47.59359,-54.27349
2021-05-14 05:24:01+00:00,293.0,7.31,291.0,7.86,12.49,47.59359,-54.27349
2021-05-14 05:34:01+00:00,281.0,6.4,283.0,7.14,12.49,47.59359,-54.27349
2021-05-14 05:44:01+00:00,278.0,7.32,280.0,7.87,12.49,47.59359,-54.27349
2021-05-14 05:54:01+00:00,273.0,6.94,276.0,7.43,12.49,47.59359,-54.27349
2021-05-14 06:04:01+00:00,269.0,6.43,274.0,7.14,12.49,47.59359,-54.27349
2021-05-14 06:14:01+00:00,265.0,5.72,269.0,6.2,12.41,47.59359,-54.27349
2021-05-14 06:24:01+00:00,261.0,5.0,259.0,5.71,12.41,47.59359,-54.27349
2021-05-14 06:34:01+00:00,261.0,5.57,259.0,6.18,12.41,47.59359,-54.27349
2021-05-14 06:44:01+00:00,264.0,5.23,266.0,5.93,12.41,47.59359,-54.27349
2021-05-14 06:54:01+00:00,267.0,4.39,266.0,5.33,12.41,47.59359,-54.27349
2021-05-14 07:04:01+00:00,275.0,4.42,290.0,5.31,12.41,47.59359,-54.27349
2021-05-14 07:14:00+00:00,273.0,4.76,273.0,5.64,12.41,47.59359,-54.27349
2021-05-14 07:24:00+00:00,286.0,4.97,286.0,6.2,12.41,47.59359,-54.27349
2021-05-14 07:34:00+00:00,291.0,6.0,293.0,6.56,12.41,47.59359,-54.27349
2021-05-14 07:44:00+00:00,288.0,6.15,290.0,6.99,12.41,47.59359,-54.27349
2021-05-14 07:54:00+00:00,282.0,6.73,280.0,7.3,12.41,47.59359,-54.27349
2021-05-14 08:04:00+00:00,281.0,6.15,279.0,8.15,12.41,47.59359,-54.27349
2021-05-14 08:14:01+00:00,271.0,5.38,271.0,6.07,12.33,47.59359,-54.27349
2021-05-14 08:24:01+00:00,269.0,5.13,270.0,6.09,12.33,47.59359,-54.27349
2021-05-14 08:34:01+00:00,272.0,5.39,278.0,5.85,12.33,47.59359,-54.27349
2021-05-14 08:44:01+00:00,269.0,5.5,272.0,6.06,12.33,47.59359,-54.27349
2021-05-14 08:54:01+00:00,268.0,4.78,267.0,5.21,12.33,47.59359,-54.27349
2021-05-14 09:04:01+00:00,275.0,5.75,284.0,6.44,12.33,47.59359,-54.27349
2021-05-14 09:14:01+00:00,270.0,5.94,271.0,6.45,12.57,47.59359,-54.27349
2021-05-14 09:24:01+00:00,272.0,4.8,273.0,5.33,12.57,47.59359,-54.27349
2021-05-14 09:34:01+00:00,282.0,5.32,287.0,5.87,12.57,47.59359,-54.27349
2021-05-14 09:44:01+00:00,286.0,5.15,288.0,5.67,12.57,47.59359,-54.27349
2021-05-14 09:54:01+00:00,282.0,6.15,285.0,6.65,12.57,47.59359,-54.27349
2021-05-14 10:04:01+00:00,280.0,6.68,281.0,7.22,12.57,47.59359,-54.27349
2021-05-14 10:14:00+00:00,274.0,6.19,276.0,6.85,13.6,47.59359,-54.27349
2021-05-14 10:24:00+00:00,284.0,5.41,282.0,6.3,13.6,47.59359,-54.27349
2021-05-14 10:34:00+00:00,294.0,3.57,303.0,4.19,13.6,47.59359,-54.27349
2021-05-14 10:44:00+00:00,293.0,4.36,290.0,5.68,13.6,47.59359,-54.27349
2021-05-14 10:54:00+00:00,294.0,3.3,294.0,4.21,13.6,47.59359,-54.27349
2021-05-14 11:04:00+00:00,283.0,2.27,278.0,2.78,13.6,47.59359,-54.27349
2021-05-14 11:14:00+00:00,278.0,2.56,286.0,2.95,13.84,47.59359,-54.27349
2021-05-14 11:24:00+00:00,287.0,2.35,285.0,3.02,13.84,47.59359,-54.27349
2021-05-14 11:34:00+00:00,277.0,2.28,278.0,2.79,13.84,47.59359,-54.27349
2021-05-14 11:44:00+00:00,302.0,3.11,297.0,3.68,13.84,47.59359,-54.27349
2021-05-14 11:54:00+00:00,285.0,1.71,287.0,2.09,13.84,47.59359,-54.27349
2021-05-14 12:04:00+00:00,260.0,2.03,264.0,2.24,13.84,47.59359,-54.27349
2021-05-14 12:14:01+00:00,277.0,3.95,278.0,4.45,13.76,47.59359,-54.27349
2021-05-14 12:24:01+00:00,249.0,2.64,247.0,2.91,13.76,47.59359,-54.27349
2021-05-14 12:34:01+00:00,255.0,1.93,250.0,2.48,13.76,47.59359,-54.27349
2021-05-14 12:44:01+00:00,232.0,2.53,232.0,2.77,13.76,47.59359,-54.27349
2021-05-14 12:54:01+00:00,254.0,1.35,281.0,1.93,13.76,47.59359,-54.27349
2021-05-14 13:04:01+00:00,282.0,1.82,285.0,2.06,13.76,47.59359,-54.27349
2021-05-14 13:14:00+00:00,258.0,2.52,264.0,2.98,13.84,47.59359,-54.27349
2021-05-14 13:24:00+00:00,257.0,2.87,256.0,3.25,13.84,47.59359,-54.27349
2021-05-14 13:34:00+00:00,271.0,3.19,268.0,3.43,13.84,47.59359,-54.27349
2021-05-14 13:44:00+00:00,263.0,3.83,264.0,4.11,13.84,47.59359,-54.27349
2021-05-14 13:54:00+00:00,242.0,4.21,238.0,4.57,13.84,47.59359,-54.27349
2021-05-14 14:04:00+00:00,264.0,4.63,263.0,5.4,13.84,47.59359,-54.27349
2021-05-14 14:14:01+00:00,229.0,3.71,231.0,4.5,13.84,47.59359,-54.27349
2021-05-14 14:24:01+00:00,216.0,4.58,220.0,5.12,13.84,47.59359,-54.27349
2021-05-14 14:34:01+00:00,201.0,3.98,200.0,4.3,13.84,47.59359,-54.27349
2021-05-14 14:44:01+00:00,192.0,4.35,193.0,4.82,13.84,47.59359,-54.27349
2021-05-14 14:54:01+00:00,206.0,5.12,206.0,5.43,13.84,47.59359,-54.27349
2021-05-14 15:04:01+00:00,208.0,5.38,209.0,5.79,13.84,47.59359,-54.27349
2021-05-14 15:14:01+00:00,205.0,5.03,204.0,5.75,14.24,47.59359,-54.27349
2021-05-14 15:24:01+00:00,207.0,5.75,207.0,6.37,14.24,47.59359,-54.27349
2021-05-14 15:34:01+00:00,205.0,6.89,207.0,7.66,14.24,47.59359,-54.27349
2021-05-14 15:44:01+00:00,202.0,7.47,200.0,8.2,14.24,47.59359,-54.27349
2021-05-14 15:54:01+00:00,205.0,7.86,207.0,9.09,14.24,47.59359,-54.27349
2021-05-14 16:04:01+00:00,204.0,7.27,202.0,7.92,14.24,47.59359,-54.27349
2021-05-14 16:14:01+00:00,201.0,7.23,202.0,8.1,14.0,47.59359,-54.27349
2021-05-14 16:24:01+00:00,205.0,8.25,210.0,9.21,14.0,47.59359,-54.27349
2021-05-14 16:34:01+00:00,200.0,7.42,201.0,8.0,14.0,47.59359,-54.27349
2021-05-14 16:44:01+00:00,206.0,8.13,207.0,8.96,14.0,47.59359,-54.27349
2021-05-14 16:54:01+00:00,208.0,8.91,211.0,9.59,14.0,47.59359,-54.27349
2021-05-14 17:04:01+00:00,211.0,9.03,213.0,10.74,14.0,47.59359,-54.27349
2021-05-14 17:14:01+00:00,213.0,7.94,214.0,9.49,13.76,47.59359,-54.27349
2021-05-14 17:24:01+00:00,217.0,5.87,225.0,6.72,13.76,47.59359,-54.27349
2021-05-14 17:34:01+00:00,224.0,7.05,224.0,8.09,13.76,47.59359,-54.27349
2021-05-14 17:44:01+00:00,211.0,6.64,206.0,8.34,13.76,47.59359,-54.27349
2021-05-14 17:54:01+00:00,253.0,3.96,239.0,5.33,13.76,47.59359,-54.27349
2021-05-14 18:04:01+00:00,255.0,2.68,265.0,4.4,13.76,47.59359,-54.27349
2021-05-14 18:14:01+00:00,243.0,1.83,213.0,4.59,13.92,47.59359,-54.27349
2021-05-14 18:24:01+00:00,340.0,1.03,341.0,1.76,13.92,47.59359,-54.27349
2021-05-14 18:34:01+00:00,213.0,2.84,230.0,3.99,13.92,47.59359,-54.27349
2021-05-14 18:44:01+00:00,241.0,3.57,218.0,5.06,13.92,47.59359,-54.27349
2021-05-14 18:54:01+00:00,9.0,3.8,7.0,4.31,13.92,47.59359,-54.27349
2021-05-14 19:04:01+00:00,51.0,2.6,56.0,3.13,13.92,47.59359,-54.27349
2021-05-14 19:14:01+00:00,41.0,4.11,39.0,4.34,13.84,47.59359,-54.27349
2021-05-14 19:24:01+00:00,85.0,2.44,70.0,3.46,13.84,47.59359,-54.27349
2021-05-14 19:34:01+00:00,122.0,3.59,123.0,3.89,13.84,47.59359,-54.27349
2021-05-14 19:44:01+00:00,158.0,3.6,158.0,3.78,13.84,47.59359,-54.27349
2021-05-14 19:54:01+00:00,137.0,2.32,138.0,2.74,13.84,47.59359,-54.27349
2021-05-14 20:04:01+00:00,146.0,2.66,148.0,3.06,13.84,47.59359,-54.27349
2021-05-14 20:14:01+00:00,182.0,1.58,190.0,1.81,13.84,47.59359,-54.27349
2021-05-14 20:24:01+00:00,257.0,2.55,260.0,3.01,13.84,47.59359,-54.27349
2021-05-14 20:34:01+00:00,218.0,1.98,224.0,2.43,13.84,47.59359,-54.27349
2021-05-14 20:44:01+00:00,210.0,1.17,219.0,1.38,13.84,47.59359,-54.27349
2021-05-14 20:54:01+00:00,71.0,0.7,66.0,1.03,13.84,47.59359,-54.27349
2021-05-14 21:04:01+00:00,27.0,1.69,26.0,1.98,13.84,47.59359,-54.27349
2021-05-14 21:14:01+00:00,8.0,2.58,9.0,2.96,13.44,47.59359,-54.27349
2021-05-14 21:24:01+00:00,30.0,2.72,29.0,2.92,13.44,47.59359,-54.27349
2021-05-14 21:34:01+00:00,1.0,2.71,359.0,3.55,13.44,47.59359,-54.27349
2021-05-14 21:44:01+00:00,354.0,2.53,351.0,2.99,13.44,47.59359,-54.27349
2021-05-14 21:54:01+00:00,11.0,1.3,2.0,1.95,13.44,47.59359,-54.27349
2021-05-14 22:04:01+00:00,351.0,2.12,351.0,2.76,13.44,47.59359,-54.27349
2021-05-14 22:14:01+00:00,325.0,3.53,326.0,3.82,13.05,47.59359,-54.27349
2021-05-14 22:24:01+00:00,336.0,2.95,335.0,3.32,13.05,47.59359,-54.27349
2021-05-14 22:34:01+00:00,336.0,1.33,330.0,1.55,13.05,47.59359,-54.27349
2021-05-14 22:44:01+00:00,292.0,2.28,294.0,2.38,13.05,47.59359,-54.27349
2021-05-14 22:54:01+00:00,317.0,2.59,323.0,2.85,13.05,47.59359,-54.27349
2021-05-14 23:04:01+00:00,354.0,1.94,352.0,2.2,13.05,47.59359,-54.27349
2021-05-14 23:14:00+00:00,21.0,5.29,19.0,5.79,12.65,47.59359,-54.27349
2021-05-14 23:24:00+00:00,19.0,5.37,19.0,5.92,12.65,47.59359,-54.27349
2021-05-14 23:34:00+00:00,26.0,4.53,26.0,4.67,12.65,47.59359,-54.27349
2021-05-14 23:44:00+00:00,37.0,3.65,37.0,3.79,12.65,47.59359,-54.27349
2021-05-14 23:54:00+00:00,41.0,3.88,40.0,4.11,12.65,47.59359,-54.27349
